Location: B�rgermoos
(47.6500°N, 9.0667°E)
Time: 02:08:52
(UTC+00:00)

Tiros 1 - Pass Details

Date: 04 August 2021
Orbit: 630 x 663 km, 48.4° (Epoch: 16 September)

Event Time Altitude Azimuth Distance (km) Brightness Sun altitude
Rises 15:57:18 0° 219° (SW) 2,982 11.2 28.0°
Reaches altitude 10° 15:59:49 10° 210° (SSW) 2,071 10.3 27.6°
Maximum altitude 16:04:05 33° 146° (SSE) 1,107 8.3 26.9°
Drops below altitude 10° 16:08:20 10° 83° (E) 2,066 9.3 26.2°
Sets 16:10:51 0° 74° (ENE) 2,974 10.0 25.7°
